Port Huron, MI

5:47 AM EDT on August 23, 2019 (GMT -0400)
Saint Clair County International

Weather History for KPHN - June, 2019

Change the Weather History Date:

Friday, June 7, 2019

  Actual Average (KMTC) Record (KMTC)
Temperature  
Mean Temperature 62 °F -  
Max Temperature 75 °F 76 °F 93 °F (1999)
Min Temperature 48 °F 56 °F 42 °F (1949)
Degree Days  
Heating Degree Days 4    
Growing Degree Days 12 (Base 50)    
Moisture  
Dew Point 47 °F    
Average Humidity 61    
Maximum Humidity 94    
Minimum Humidity 27    
Precipitation  
Precipitation 0.00 in - - ()
Sea Level Pressure  
Sea Level Pressure 30.02 in    
Wind  
Wind Speed 3 mph (NNE)    
Max Wind Speed 13 mph    
Max Gust Speed 17 mph    
Visibility 9 miles    
Events      
Averages and records for this station are not official NWS values.
T = Trace of Precipitation, MM = Missing Value Source: NWS Daily Summary

Daily Weather History Graph

Daily Weather History Graph

Search for Another Location

Airport or City:

Astronomy

Jun. 07, 2019 Rise Set
Actual Time 5:51 AM EDT 9:06 PM EDT
Civil Twilight 5:17 AM EDT 9:41 PM EDT
Nautical Twilight 4:32 AM EDT 10:26 PM EDT
Astronomical Twilight 3:37 AM EDT 11:21 PM EDT
Moon 10:09 AM EDT (6/7) 12:21 AM EDT (6/7)
Length of Visible Light 16h 24m
Length of Day
15h 14m
Waxing Crescent, 22% of the Moon is Illuminated
Jun 7
Waxing Crescent
Jun 10
First Quarter
Jun 17
Full
Jun 25
Last Quarter
Jul 2
New

Hourly Weather History & Observations

Time (EDT) Temp. Dew Point Humidity Pressure Visibility Wind Dir Wind Speed Gust Speed Precip Events Conditions
12:16 AM 51.8 °F 48.2 °F 88% 29.96 in 10.0 mi Calm Calm - N/A   Clear
12:55 AM 51.8 °F 48.2 °F 88% 29.97 in 7.0 mi Calm Calm - N/A   Clear
12:56 AM 51.8 °F 48.2 °F 88% 29.97 in 7.0 mi Calm Calm - N/A   Clear
1:19 AM 51.8 °F 48.2 °F 88% 29.97 in 7.0 mi Calm Calm - N/A   Clear
1:37 AM 51.8 °F 48.2 °F 88% 29.97 in 7.0 mi Calm Calm - N/A   Clear
1:55 AM 50.0 °F 48.2 °F 94% 29.96 in 5.0 mi Calm Calm - N/A   Clear
1:56 AM 50.0 °F 48.2 °F 94% 29.96 in 5.0 mi Calm Calm - N/A   Clear
2:15 AM 51.8 °F 48.2 °F 88% 29.96 in 10.0 mi Calm Calm - N/A   Clear
2:16 AM 51.8 °F 48.2 °F 88% 29.96 in 10.0 mi Calm Calm - N/A   Clear
2:35 AM 50.0 °F 48.2 °F 94% 29.97 in 7.0 mi Calm Calm - N/A   Clear
2:58 AM 50.0 °F 46.4 °F 87% 29.97 in 2.0 mi Calm Calm - N/A   Clear
3:16 AM 50.0 °F 46.4 °F 87% 29.97 in 5.0 mi Calm Calm - N/A   Clear
3:35 AM 50.0 °F 46.4 °F 87% 29.96 in 7.0 mi Calm Calm - N/A   Clear
3:55 AM 50.0 °F 46.4 °F 87% 29.97 in 5.0 mi Calm Calm - N/A   Clear
4:19 AM 50.0 °F 46.4 °F 87% 29.97 in 7.0 mi Calm Calm - N/A   Clear
4:37 AM 50.0 °F 46.4 °F 87% 29.96 in 7.0 mi Calm Calm - N/A   Clear
4:55 AM 50.0 °F 46.4 °F 87% 29.97 in 2.5 mi Calm Calm - N/A   Clear
5:15 AM 50.0 °F 46.4 °F 87% 29.97 in 7.0 mi Calm Calm - N/A   Clear
5:35 AM 50.0 °F 46.4 °F 87% 29.97 in 7.0 mi Calm Calm - N/A   Clear
5:58 AM 48.2 °F 46.4 °F 93% 29.98 in 3.0 mi Calm Calm - N/A   Clear
6:16 AM 50.0 °F 46.4 °F 87% 29.99 in 5.0 mi Calm Calm - N/A   Clear
6:35 AM 50.0 °F 48.2 °F 94% 29.99 in 10.0 mi Calm Calm - N/A   Clear
6:36 AM 50.0 °F 48.2 °F 94% 29.99 in 10.0 mi Calm Calm - N/A   Clear
6:55 AM 51.8 °F 48.2 °F 88% 30.00 in 10.0 mi Calm Calm - N/A   Clear
6:56 AM 51.8 °F 50.0 °F 94% 30.00 in 10.0 mi Calm Calm - N/A   Clear
7:19 AM 55.4 °F 51.8 °F 88% 30.00 in 10.0 mi Calm Calm - N/A   Clear
7:37 AM 55.4 °F 53.6 °F 94% 30.01 in 10.0 mi Calm Calm - N/A   Clear
7:55 AM 57.2 °F 53.6 °F 88% 30.01 in 10.0 mi Calm Calm - N/A   Clear
8:15 AM 60.8 °F 55.4 °F 82% 30.02 in 10.0 mi Calm Calm - N/A   Clear
8:16 AM 60.8 °F 55.4 °F 82% 30.02 in 10.0 mi Calm Calm - N/A   Clear
8:35 AM 62.6 °F 55.4 °F 77% 30.02 in 10.0 mi NE 3.5 mph - N/A   Clear
8:40 AM 62.6 °F 55.4 °F 77% 30.02 in 10.0 mi NE 3.5 mph - N/A   Clear
8:58 AM 64.4 °F 55.4 °F 73% 30.02 in 10.0 mi NE 4.6 mph - N/A   Clear
9:16 AM 66.2 °F 53.6 °F 64% 30.03 in 10.0 mi NE 5.8 mph - N/A   Clear
9:35 AM 66.2 °F 53.6 °F 64% 30.03 in 10.0 mi NE 5.8 mph - N/A   Clear
9:36 AM 66.2 °F 53.6 °F 64% 30.03 in 10.0 mi NE 5.8 mph - N/A   Clear
9:55 AM 68.0 °F 53.6 °F 60% 30.04 in 10.0 mi NNE 5.8 mph - N/A   Clear
10:19 AM 69.8 °F 53.6 °F 56% 30.04 in 10.0 mi North 5.8 mph - N/A   Clear
10:37 AM 69.8 °F 51.8 °F 53% 30.05 in 10.0 mi NE 5.8 mph - N/A   Clear
10:55 AM 69.8 °F 51.8 °F 53% 30.04 in 10.0 mi NNE 5.8 mph - N/A   Clear
10:56 AM 69.8 °F 51.8 °F 53% 30.04 in 10.0 mi NNE 5.8 mph - N/A   Clear
11:15 AM 71.6 °F 51.8 °F 50% 30.04 in 10.0 mi NNE 8.1 mph - N/A   Clear
11:35 AM 73.4 °F 50.0 °F 44% 30.05 in 10.0 mi ENE 8.1 mph - N/A   Clear
11:58 AM 73.4 °F 48.2 °F 41% 30.05 in 10.0 mi North 8.1 mph - N/A   Clear
12:15 PM 73.4 °F 50.0 °F 44% 30.05 in 10.0 mi NE 6.9 mph - N/A   Clear
12:35 PM 73.4 °F 51.8 °F 47% 30.05 in 10.0 mi NNE 8.1 mph - N/A   Clear
12:55 PM 73.4 °F 51.8 °F 47% 30.05 in 10.0 mi NE 10.4 mph - N/A   Clear
1:19 PM 73.4 °F 50.0 °F 44% 30.05 in 10.0 mi North 9.2 mph - N/A   Clear
1:37 PM 73.4 °F 50.0 °F 44% 30.04 in 10.0 mi NE 10.4 mph - N/A   Clear
1:55 PM 73.4 °F 48.2 °F 41% 30.04 in 10.0 mi NNE 11.5 mph - N/A   Clear
2:15 PM 75.2 °F 46.4 °F 36% 30.04 in 10.0 mi NNE 10.4 mph - N/A   Clear
2:35 PM 75.2 °F 46.4 °F 36% 30.04 in 10.0 mi NE 12.7 mph - N/A   Clear
2:40 PM 75.2 °F 46.4 °F 36% 30.04 in 10.0 mi NE 12.7 mph - N/A   Clear
2:58 PM 75.2 °F 46.4 °F 36% 30.03 in 10.0 mi NE 11.5 mph 16.1 mph N/A   Clear
3:16 PM 75.2 °F 46.4 °F 36% 30.03 in 10.0 mi NNE 8.1 mph 11.5 mph N/A   Clear
3:35 PM 75.2 °F 42.8 °F 31% 30.04 in 10.0 mi NE 12.7 mph 17.3 mph N/A   Clear
3:55 PM 75.2 °F 42.8 °F 31% 30.03 in 10.0 mi NNE 10.4 mph - N/A   Clear
3:56 PM 75.2 °F 42.8 °F 31% 30.03 in 10.0 mi NNE 11.5 mph - N/A   Clear
4:19 PM 75.2 °F 42.8 °F 31% 30.03 in 10.0 mi NE 11.5 mph - N/A   Clear
4:37 PM 75.2 °F 41.0 °F 29% 30.03 in 10.0 mi NE 12.7 mph - N/A   Clear
4:55 PM 75.2 °F 41.0 °F 29% 30.03 in 10.0 mi NE 12.7 mph - N/A   Clear
5:15 PM 75.2 °F 42.8 °F 31% 30.03 in 10.0 mi NE 11.5 mph - N/A   Clear
5:16 PM 75.2 °F 42.8 °F 31% 30.03 in 10.0 mi NE 11.5 mph - N/A   Clear
5:35 PM 75.2 °F 39.2 °F 27% 30.02 in 10.0 mi North 10.4 mph - N/A   Clear
5:40 PM 73.4 °F 39.2 °F 29% 30.03 in 10.0 mi NNE 9.2 mph - N/A   Clear
5:58 PM 73.4 °F 39.2 °F 29% 30.03 in 10.0 mi NNE 8.1 mph 16.1 mph N/A   Clear
6:16 PM 73.4 °F 41.0 °F 31% 30.02 in 10.0 mi NNE 6.9 mph - N/A   Clear
6:35 PM 73.4 °F 41.0 °F 31% 30.02 in 10.0 mi NE 8.1 mph - N/A   Clear
6:36 PM 73.4 °F 41.0 °F 31% 30.02 in 10.0 mi NE 8.1 mph - N/A   Clear
6:55 PM 71.6 °F 41.0 °F 33% 30.02 in 10.0 mi NNE 10.4 mph - N/A   Clear
7:19 PM 69.8 °F 39.2 °F 33% 30.03 in 10.0 mi NNE 11.5 mph 17.3 mph N/A   Clear
7:37 PM 68.0 °F 41.0 °F 37% 30.03 in 10.0 mi NNE 9.2 mph - N/A   Clear
7:55 PM 66.2 °F 37.4 °F 35% 30.03 in 10.0 mi NNE 10.4 mph - N/A   Clear
7:56 PM 66.2 °F 37.4 °F 35% 30.03 in 10.0 mi NNE 8.1 mph - N/A   Clear
8:15 PM 64.4 °F 41.0 °F 42% 30.04 in 10.0 mi NNE 8.1 mph - N/A   Clear
8:35 PM 62.6 °F 39.2 °F 42% 30.03 in 10.0 mi NNE 6.9 mph - N/A   Clear
8:58 PM 60.8 °F 39.2 °F 45% 30.04 in 10.0 mi NNE 5.8 mph - N/A   Clear
9:16 PM 59.0 °F 41.0 °F 51% 30.05 in 10.0 mi NNE 5.8 mph - N/A   Clear
9:35 PM 59.0 °F 41.0 °F 51% 30.06 in 10.0 mi NNE 4.6 mph - N/A   Clear
9:55 PM 57.2 °F 41.0 °F 55% 30.06 in 10.0 mi NNE 4.6 mph - N/A   Clear
10:19 PM 57.2 °F 42.8 °F 59% 30.07 in 10.0 mi NNE 3.5 mph - N/A   Clear
10:37 PM 57.2 °F 42.8 °F 59% 30.07 in 10.0 mi Calm Calm - N/A   Clear
10:55 PM 55.4 °F 44.6 °F 67% 30.07 in 10.0 mi Calm Calm - N/A   Clear
11:15 PM 53.6 °F 46.4 °F 77% 30.07 in 10.0 mi Calm Calm - N/A   Clear
11:35 PM 55.4 °F 44.6 °F 67% 30.07 in 10.0 mi NNE 5.8 mph - N/A   Clear
11:40 PM 57.2 °F 44.6 °F 63% 30.07 in 10.0 mi NNE 5.8 mph - N/A   Clear
11:58 PM 57.2 °F 44.6 °F 63% 30.08 in 10.0 mi ENE 3.5 mph - N/A   Clear